Pine Ridge, SD

2:43 PM MDT on August 18, 2017 (GMT -0600)
Pine Ridge

Weather History for KIEN - November, 2013

Change the Weather History Date:

Sunday, November 24, 2013

  Actual Average Record
Temperature  
Mean Temperature 26 °F 29 °F  
Max Temperature 37 °F 43 °F 71 °F (2011)
Min Temperature 15 °F 16 °F -4 °F (2003)
Degree Days  
Heating Degree Days 39 36  
Month to date heating degree days 747 712  
Since 1 July heating degree days 1524 1467  
Cooling Degree Days 0 0  
Month to date cooling degree days 0 0  
Year to date cooling degree days 804 717  
Moisture  
Dew Point 18 °F    
Average Humidity 72    
Maximum Humidity 92    
Minimum Humidity 52    
Precipitation  
Precipitation 0.00 in 0.01 in 0.08 in (2001)
Month to date precipitation 0.83 0.51  
Year to date precipitation 19.96 17.11  
Sea Level Pressure  
Sea Level Pressure 30.18 in    
Wind  
Wind Speed 10 mph (SSW)    
Max Wind Speed 23 mph    
Max Gust Speed 26 mph    
Visibility 10 miles    
Events      
T = Trace of Precipitation, MM = Missing Value Source: NWS Daily Summary

Daily Weather History Graph

Daily Weather History Graph

Search for Another Location

Airport or City:

Trip Planner

Search our weather history database for the weather conditions in past years. The results will help you decide how hot, cold, wet, or windy it might be!

Date:

Astronomy

Nov. 24, 2013 Rise Set
Actual Time 6:53 AM MST 4:19 PM MST
Civil Twilight 6:22 AM MST 4:50 PM MST
Nautical Twilight 5:47 AM MST 5:25 PM MST
Astronomical Twilight 5:13 AM MST 5:59 PM MST
Moon 10:52 PM MST (11/24) 11:38 AM MST (11/24)
Length of Visible Light 10h 28m
Length of Day
9h 25m
Waning Gibbous, 60% of the Moon is Illuminated
Nov 24
Waning Gibbous
Nov 25
Last Quarter
Dec 2
New
Dec 9
First Quarter
Dec 17
Full

Hourly Weather History & Observations

Time (MST) Temp. Windchill Dew Point Humidity Pressure Visibility Wind Dir Wind Speed Gust Speed Precip Events Conditions
12:52 AM 21.0 °F 8.1 °F 12.9 °F 71% 30.43 in 10.0 mi SSW 13.8 mph - N/A   Clear
1:52 AM 19.9 °F 9.3 °F 12.0 °F 71% 30.40 in 10.0 mi South 9.2 mph - N/A   Clear
2:52 AM 19.9 °F 11.1 °F 12.9 °F 74% 30.36 in 10.0 mi SW 6.9 mph - N/A   Clear
3:52 AM 21.0 °F 8.6 °F 12.9 °F 71% 30.34 in 10.0 mi SW 12.7 mph - N/A   Clear
4:52 AM 21.9 °F 9.2 °F 12.9 °F 68% 30.33 in 10.0 mi SSW 13.8 mph - N/A   Clear
5:52 AM 21.9 °F 7.8 °F 12.9 °F 68% 30.30 in 10.0 mi SSW 17.3 mph - N/A   Clear
6:52 AM 23.0 °F 10.6 °F 12.9 °F 65% 30.27 in 10.0 mi SSW 13.8 mph - N/A   Clear
7:52 AM 26.1 °F 14.5 °F 15.1 °F 63% 30.26 in 10.0 mi SSW 13.8 mph 20.7 mph N/A   Clear
8:52 AM 30.0 °F 19.1 °F 17.1 °F 59% 30.24 in 10.0 mi SSW 15.0 mph - N/A   Clear
9:52 AM 34.0 °F 25.0 °F 19.9 °F 56% 30.20 in 10.0 mi SSW 12.7 mph - N/A   Clear
10:52 AM 36.0 °F 26.7 °F 21.0 °F 55% 30.15 in 10.0 mi SSW 15.0 mph - N/A   Clear
11:52 AM 37.0 °F 27.0 °F 21.9 °F 54% 30.10 in 10.0 mi SSW 18.4 mph - N/A   Clear
12:52 PM 37.0 °F 27.0 °F 23.0 °F 57% 30.08 in 10.0 mi SSW 18.4 mph - N/A   Clear
1:52 PM 37.0 °F 27.0 °F 24.1 °F 59% 30.06 in 10.0 mi SSW 18.4 mph 26.5 mph N/A   Clear
2:52 PM 36.0 °F 26.7 °F 24.1 °F 62% 30.06 in 10.0 mi SSW 15.0 mph 23.0 mph N/A   Clear
3:52 PM 34.0 °F 26.0 °F 24.1 °F 67% 30.05 in 10.0 mi SSW 10.4 mph - N/A   Clear
4:52 PM 30.9 °F 24.3 °F 24.1 °F 76% 30.06 in 10.0 mi SSW 6.9 mph - N/A   Clear
5:52 PM 30.0 °F 22.4 °F 23.0 °F 75% 30.06 in 10.0 mi SSW 8.1 mph - N/A   Clear
6:52 PM 28.9 °F 25.2 °F 21.9 °F 75% 30.07 in 10.0 mi WSW 3.5 mph - N/A   Clear
7:52 PM 25.0 °F 19.3 °F 21.0 °F 85% 30.09 in 10.0 mi WNW 4.6 mph - N/A   Clear
8:52 PM 24.1 °F 19.7 °F 19.9 °F 84% 30.09 in 10.0 mi WSW 3.5 mph - N/A   Clear
9:52 PM 18.0 °F - 16.0 °F 92% 30.12 in 8.0 mi Calm Calm - N/A   Clear
10:52 PM 16.0 °F - 14.0 °F 92% 30.13 in 8.0 mi Calm Calm - N/A   Clear
11:52 PM 19.9 °F - 17.1 °F 89% 30.14 in 9.0 mi Calm Calm - N/A   Partly Cloudy